Regional Weather Roundup
Issued by NWS

Home | Current Version | Previous Version | Text Only | Print | Product List | Glossary On
Versions: 1 2 3 4 5 6 7 8 9 10 11 12 13 14 15 16 17 18 19 20 21 22 23 24 25 26 27 28 29 30 31 32 33 34 35 36 37 38 39 40 41 42 43 44 45 46 47 48 49 50
000
ASUS43 KLMK 021010
RWRKY
KENTUCKY REGIONAL WEATHER ROUNDUP
NATIONAL WEATHER SERVICE LOUISVILLE KY
600 AM EDT THU APR 02 2015

NOTE "FAIR" INDICATES FEW OR NO CLOUDS BELOW 12,000 FEET
WITH NO SIGNIFICANT WEATHER AND/OR OBSTRUCTIONS TO VISIBILITY.

KYZ001>023-026-027-061>063-070>075-021100-
WESTERN AND SOUTH CENTRAL KENTUCKY

CITY           SKY/WX    TMP DP  RH WIND       PRES   REMARKS
PADUCAH        LGT RAIN  62  59  90 SW10      29.88F
HENDERSON      CLOUDY    61  52  72 SW9       29.90R
OWENSBORO      CLOUDY    59  42  53 SW7       29.91R
HOPKINSVILLE   CLOUDY    67  55  65 S12       29.91S
BOWLING GREEN  CLOUDY    65  42  43 S12       29.94S
GLASGOW        CLOUDY    62  37  39 S5        29.96S
$$

KYZ024-025-028>034-038-045-046-053-021100-
NORTH CENTRAL KENTUCKY

CITY           SKY/WX    TMP DP  RH WIND       PRES   REMARKS
LOUISVILLE/SDF CLOUDY    59  31  34 SE12      29.92S
LOUISVILLE/LOU MOCLDY    58  29  33 SE3       29.92S
FORT KNOX      CLOUDY    61  33  35 S12       29.90S
$$

KYZ035>037-039>044-047>052-055>060-089>105-021100-
NORTHEAST KENTUCKY

CITY           SKY/WX    TMP DP  RH WIND       PRES   REMARKS
LEXINGTON      MOCLDY    56  28  34 S14       29.98R
COVINGTON      CLOUDY    52  27  38 S9        29.95R
FRANKFORT      MOCLDY    54  28  36 S7        29.94S
$$

KYZ054-064>069-076>088-106>120-021100-
SOUTHEAST KENTUCKY

CITY           SKY/WX    TMP DP  RH WIND       PRES   REMARKS
JACKSON        CLEAR     52  23  32 S3        30.03S
LONDON         MOCLDY    54  23  30 S3        30.03R
SOMERSET       MOCLDY    52  28  40 CALM      30.03R
MIDDLESBORO    CLOUDY    42  36  80 CALM      30.09R
MONTICELLO     MOSUNNY   64  32  30 S12       30.03S
$$




USA.gov is the U.S. government's official web portal to all federal, state and local government web resources and services.